Simultaneous Nadir Overpasses (SNOs) Predictions

Prediction of SNOs between GOES-16 and METOP-A Satellite Orbit:

Table of predicted SNOs for the next 14.0 days since TLE Epoch: 1/30/2021
Index Date Time (GOES-16) GOES-16 Lat,Lon METOP-A Lat,Lon Distance(km) Time Diff (sec)
1 01/31/2021 01:28:14 0.00, -75.19 -0.26, -76.51 149.25 80
2 02/01/2021 01:04:53 0.01, -75.20 0.79, -71.52 418.23 80
3 02/02/2021 13:26:26 -0.01, -75.24 0.20, -76.12 100.56 80
4 02/03/2021 13:03:06 -0.01, -75.25 -0.91, -71.15 467.25 80
5 02/05/2021 01:24:46 0.01, -75.22 -0.11, -75.78 63.50 80
6 02/07/2021 13:22:58 -0.01, -75.28 0.05, -75.40 14.23 80
7 02/10/2021 01:18:39 0.01, -75.28 0.05, -75.06 24.35 80
8 02/11/2021 13:40:11 -0.01, -75.34 0.94, -79.67 493.06 80
9 02/12/2021 13:16:52 -0.01, -75.35 -0.17, -74.69 75.95 80
